Location: St. Louis
(38.6270°N, 90.1994°W)
Time: 11:57:50
(UTC-06:00)

S-56A Canister/Altair - Pass Details

Date: 02 December 2021
Orbit: 634 x 2499 km, 38.9° (Epoch: 26 January)

Event Time Altitude Azimuth Distance (km) Brightness Sun altitude
Rises 04:14:20 0° 280° (W) 3,774 - -31.9°
Reaches altitude 10° 04:17:22 10° 279° (W) 2,580 - -31.3°
Maximum altitude 04:23:07 74° 195° (SSW) 752 - -30.2°
Exits shadow 04:24:25 47° 125° (SE) 911 8.1 -29.9°
Drops below altitude 10° 04:27:38 10° 111° (ESE) 2,037 10.6 -29.3°
Sets 04:29:47 0° 109° (ESE) 2,914 11.7 -28.9°
